This demonstration page uses our WeatherBlox Daily Observations layout. Learn more.

Left ArrowRight Arrow

Hourly Observations for December 1, 2022

Temp ( °F °C ) Dew Point ( °F °C ) Humidity (%) Winds ( mph kmh ) Pressure ( in mb ) Visibility ( mi km ) Precip ( " mm )
12:52 am 00:52 Clear 20 -6.7 11 -11.7 67 67 SSE 10 17 30.38 1029 10 16 0.00 0.00
1:52 am 01:52 Clear 18 -7.8 10 -12.2 71 71 SSE 8 13 30.36 1028 10 16 0.00 0.00
2:52 am 02:52 Mostly Clear 20 -6.7 10 -12.2 65 65 SSE 10 17 30.34 1027 10 16 0.00 0.00
3:52 am 03:52 Mostly Clear 22 -5.6 11 -11.7 62 62 SSE 14 22 30.30 1026 10 16 0.00 0.00
4:52 am 04:52 Clear 22 -5.6 11 -11.7 62 62 S 13 20 30.28 1025 10 16 0.00 0.00
5:52 am 05:52 Clear 24 -4.4 13 -10.6 62 62 SSE 16 26 30.24 1024 10 16 0.00 0.00
6:52 am 06:52 Mostly Clear 24 -4.4 14 -10 65 65 SSE 15 24 30.23 1024 10 16 0.00 0.00
7:52 am 07:52 Partly Cloudy 26 -3.3 15 -9.4 63 63 SSE 17 28 30.19 1022 10 16 0.00 0.00
8:52 am 08:52 Partly Cloudy 30 -1.1 16 -8.9 55 55 SSE 24 39 30.15 1021 10 16 0.00 0.00
9:52 am 09:52 Partly Cloudy 35 1.7 18 -7.8 49 49 S 24 39 30.14 1021 10 16 0.00 0.00
10:52 am 10:52 Partly Cloudy 37 2.8 18 -7.8 45 45 S 20 31 30.13 1020 10 16 0.00 0.00
11:52 am 11:52 Partly Cloudy 40 4.4 19 -7.2 43 43 S 20 31 30.08 1019 10 16 0.00 0.00
12:52 pm 12:52 Partly Cloudy 44 6.7 19 -7.2 36 36 S 25 41 30.03 1017 10 16 0.00 0.00
1:52 pm 13:52 Partly Cloudy 47 8.3 20 -6.7 34 34 SSW 23 37 29.97 1015 10 16 0.00 0.00
2:52 pm 14:52 Partly Cloudy 48 8.9 21 -6.1 34 34 SSW 25 41 29.96 1014 10 16 0.00 0.00
3:52 pm 15:52 Partly Cloudy 48 8.9 21 -6.1 34 34 S 20 31 29.94 1014 10 16 0.00 0.00
4:52 pm 16:52 Partly Cloudy 48 8.9 21 -6.1 34 34 S 16 26 29.93 1014 10 16 0.00 0.00
5:52 pm 17:52 Partly Cloudy 46 7.8 22 -5.6 38 38 S 16 26 29.93 1013 10 16 0.00 0.00
7:52 pm 19:52 Partly Cloudy 43 6.1 25 -3.9 49 49 S 16 26 29.91 1013 10 16 0.00 0.00
8:52 pm 20:52 Partly Cloudy 42 5.6 25 -3.9 50 50 S 17 28 29.90 1013 10 16 0.00 0.00
9:52 pm 21:52 Mostly Cloudy 40 4.4 24 -4.4 53 53 S 16 26 29.88 1012 10 16 0.00 0.00
10:52 pm 22:52 Mostly Cloudy 37 2.8 21 -6.1 52 52 S 17 28 29.85 1011 10 16 0.00 0.00
11:52 pm 23:52 Mostly Cloudy 37 2.8 21 -6.1 52 52 S 18 30 29.82 1010 10 16 0.00 0.00

Powered by AerisWeather